Location: Pasarilla del Rebollar
(40.6790°N, 5.0062°W)
Time: 11:58:14
(UTC+00:00)

Gbstr 26 Del rocket - Pass Details

Date: 22 April 2026
Orbit: 490 x 1216 km, 51.8° (Epoch: 16 May)

Event Time Altitude Azimuth Distance (km) Brightness Sun altitude
Exits shadow 03:19:33 18° 323° (NW) 1,268 4.7 -22.6°
Maximum altitude 03:22:03 46° 30° (NNE) 670 3.6 -22.3°
Drops below altitude 10° 03:25:40 10° 105° (ESE) 1,703 5.7 -21.7°
Sets 03:27:58 0° 112° (ESE) 2,630 6.7 -21.4°
